Theta_e
312 311 311 312 312 313 314 314 315 315 315 315 315 315 316 314 315 317 324 326 320 313 313 314 313 311 311 311 304 309 307 309 307 301 300 301 299 304 302 302 300 299 298 297 298 296 293 311 310 304 314 317 317 322
312 312 311 312 312 313 314 314 315 315 315 315 315 315 316 314 314 315 322 326 325 318 314 319 318 318 316 314 311 313 309 308 309 305 305 308 302 305 302 297 307 299 303 301 300 302 312 314 314 317 320 320 320 323
311 311 311 311 312 313 314 314 314 315 314 315 315 315 316 314 314 314 325 326 322 316 315 316 313 317 319 318 319 309 314 314 313 316 310 308 301 308 299 300 303 306 308 304 304 308 310 313 316 317 322 322 321 326
311 311 311 311 312 313 313 313 314 314 314 314 315 315 314 313 313 312 323 325 322 319 311 311 318 314 318 319 318 317 316 317 317 315 308 306 302 308 303 304 305 308 308 306 306 311 311 313 315 316 320 323 323 324
310 310 311 312 313 313 313 313 313 313 314 314 315 315 313 313 312 318 326 326 326 317 309 310 315 315 316 317 316 317 318 316 312 308 306 305 309 306 308 307 303 309 307 304 303 313 313 314 315 317 317 319 321 322
310 311 311 312 312 312 313 313 313 313 313 314 315 314 311 312 312 323 317 324 327 324 313 305 315 313 315 315 313 313 317 317 315 310 312 313 309 307 302 301 306 310 312 313 311 315 313 315 316 316 316 318 319 321
310 311 312 312 312 312 312 312 313 313 313 313 314 310 310 311 321 317 312 318 314 326 313 307 308 314 315 316 317 315 314 314 312 312 309 311 309 306 305 301 305 311 312 313 314 314 311 312 313 315 315 317 317 319
310 311 312 312 313 313 312 312 312 312 313 312 310 310 311 311 312 317 321 315 319 322 316 307 307 309 316 312 310 316 313 311 310 310 308 306 307 308 303 307 309 312 313 313 313 313 314 315 314 314 315 315 315 316
310 310 310 310 310 310 310 311 312 311 310 310 310 311 317 319 316 318 314 316 329 321 309 308 304 303 314 313 314 311 313 306 310 305 307 306 305 295 303 307 307 311 311 312 313 312 312 311 311 312 312 312 313 314
310 309 309 309 310 310 310 310 310 310 310 310 313 317 313 319 315 317 317 315 317 317 316 308 313 305 311 310 309 310 310 307 303 305 309 303 303 308 309 308 308 311 313 314 310 309 310 309 310 310 311 314 314 314
309 309 309 309 309 309 309 309 309 310 309 317 317 316 319 314 318 316 309 308 310 306 310 310 309 307 315 306 307 311 308 307 299 302 302 303 302 306 308 311 309 312 314 314 313 311 309 309 308 309 309 311 313 313
309 309 309 309 309 310 309 308 309 314 318 313 316 318 319 315 313 307 304 308 305 301 309 306 308 312 311 316 309 308 304 304 296 306 302 300 307 309 309 310 310 312 313 312 310 309 309 309 310 309 309 309 311 312
309 309 309 309 310 310 310 308 308 309 309 319 317 312 311 309 296 299 298 301 304 308 310 310 306 310 310 312 309 305 299 299 307 300 300 302 310 311 312 311 310 313 314 311 311 312 312 312 313 312 311 312 312 313
309 309 310 310 310 310 310 308 308 310 315 313 308 294 301 300 301 303 305 308 311 311 310 310 308 309 311 306 308 299 304 304 297 296 298 306 310 312 313 312 310 309 311 311 312 312 312 313 313 314 315 316 314 313
309 309 309 309 310 311 310 309 309 312 314 308 309 298 302 306 311 312 314 313 314 314 311 309 309 310 307 304 305 304 298 296 298 300 307 309 314 314 313 312 311 309 309 310 312 313 314 314 314 313 313 314 314 314
309 309 309 310 309 309 308 310 312 313 311 308 309 306 309 307 306 309 311 311 315 312 313 312 307 304 303 306 301 299 298 297 304 309 312 314 315 316 315 314 313 312 312 313 312 313 314 313 311 310 309 311 311 309
309 309 309 308 309 308 308 312 312 307 305 304 304 309 310 311 311 314 313 314 317 311 307 308 303 302 308 302 300 305 303 308 313 312 313 317 317 316 313 315 313 310 312 314 313 312 309 309 308 307 307 310 311 311
310 310 309 309 309 311 311 311 309 306 301 305 303 305 308 309 309 312 314 315 314 312 312 307 311 304 302 300 303 308 311 313 314 314 315 318 318 317 314 310 312 313 312 309 308 306 307 306 306 307 309 310 309 309
309 310 310 309 309 311 308 308 310 302 304 307 308 308 309 308 310 311 314 316 316 318 315 311 306 305 306 310 310 311 314 314 312 315 318 316 318 317 311 309 310 309 307 304 304 306 307 308 306 307 308 310 307 308
309 309 309 309 309 309 305 308 314 306 303 307 309 307 309 307 310 312 310 311 313 312 310 308 308 311 312 314 317 316 317 318 316 316 316 316 317 314 309 307 305 305 306 308 308 304 307 306 307 308 308 308 309 306
308 308 309 310 306 305 307 308 309 311 312 310 314 311 309 312 311 310 310 314 309 307 308 313 313 316 322 321 322 322 321 320 317 319 319 310 314 313 311 307 306 307 308 306 306 305 303 306 306 307 307 308 308 308
308 309 313 311 305 307 307 311 308 311 310 309 310 311 307 308 309 311 315 311 309 311 315 316 318 319 320 320 321 322 323 321 321 317 309 310 311 311 310 307 309 309 308 307 307 307 307 307 307 307 307 307 305 307
308 311 311 310 304 300 300 313 306 308 302 306 310 307 309 311 315 317 311 313 314 320 322 321 323 324 323 321 320 320 321 320 318 316 315 315 315 313 309 311 312 310 307 308 309 308 308 303 305 307 306 307 306 305
307 307 305 303 302 298 309 306 310 308 308 305 304 303 306 311 316 312 309 315 318 320 319 321 319 317 317 318 317 317 319 319 318 317 316 314 312 311 313 312 312 312 310 310 309 309 310 309 304 306 306 305 305 305
297 298 301 293 306 302 302 303 304 305 302 305 304 306 310 315 308 306 307 313 315 317 317 319 318 317 317 316 315 316 319 316 313 313 315 314 313 313 312 313 313 314 313 310 309 309 309 310 308 307 306 305 305 304
291 300 296 301 302 301 303 299 301 302 304 303 306 312 314 310 302 302 309 315 315 316 316 317 316 314 313 315 311 311 314 316 315 312 314 315 314 312 311 311 311 312 316 314 311 310 309 309 309 307 305 303 297 303
292 299 306 311 306 306 305 307 308 306 303 302 308 306 306 300 300 309 315 318 316 315 315 316 315 314 314 314 314 315 315 316 316 314 316 317 316 316 315 312 310 311 315 314 312 312 310 309 308 307 305 305 306 305
302 304 300 304 306 307 302 304 303 302 306 311 310 304 302 303 305 314 316 316 314 314 315 316 316 317 318 316 315 314 314 316 316 315 314 315 317 317 317 319 316 296 314 315 315 314 312 309 308 307 306 305 305 306
303 308 307 303 304 305 305 304 307 310 313 308 306 305 307 316 317 315 315 314 314 315 314 314 315 317 314 314 314 314 312 311 309 307 307 306 307 309 314 314 314 313 313 313 299 305 310 308 307 307 306 306 306 307
303 308 304 303 302 302 308 311 310 314 318 316 316 315 314 314 320 321 316 313 312 310 313 315 314 313 311 310 308 308 311 312 313 309 305 305 306 308 310 310 310 310 311 311 310 309 296 304 302 306 305 306 306 305
309 307 304 304 304 308 310 314 316 316 317 315 317 314 312 315 318 319 316 315 315 313 311 310 311 311 310 308 307 306 305 309 310 310 311 311 312 310 310 311 312 310 310 310 309 308 307 306 306 306 306 305 305 304
305 304 303 301 303 309 311 308 309 311 314 313 313 315 315 313 308 313 318 316 313 312 308 310 309 308 312 313 312 313 299 311 310 310 311 311 312 311 310 310 310 309 309 309 309 308 308 307 306 306 305 305 305 305
305 305 305 305 306 306 310 310 309 310 312 312 313 315 314 310 307 313 319 319 317 316 315 315 315 315 315 315 314 313 304 313 307 295 297 297 298 303 309 310 310 309 308 307 307 307 307 306 306 305 305 305 306 306
Wind_Speed
12 14 14 15 16 16 16 15 13 12 13 13 11 10 12 12 10 6 3 1 5 5 7 5 4 4 3 2 5 6 6 6 4 6 4 2 4 2 3 5 6 8 8 7 7 7 11 5 4 8 8 5 5 2
13 14 15 16 17 16 15 15 12 9 11 12 10 10 11 11 9 8 2 2 3 3 9 9 11 10 7 6 6 2 5 2 4 3 3 0 4 3 5 4 4 6 4 5 5 5 6 5 5 5 7 8 6 3
14 15 15 16 17 16 15 14 13 9 10 9 9 9 11 11 9 7 2 1 5 8 7 7 6 6 7 6 6 5 3 2 3 4 3 2 6 2 4 6 5 4 3 5 4 7 5 4 3 5 6 7 3 1
15 16 17 16 17 17 14 13 11 9 9 8 7 7 9 10 9 7 2 2 4 2 2 7 3 4 4 6 3 5 3 3 3 3 3 3 4 2 2 4 5 4 4 6 5 4 4 5 4 5 7 6 7 7
15 16 17 16 16 14 13 11 10 9 9 7 7 5 8 9 9 5 1 2 3 5 2 6 7 5 6 6 5 3 1 3 4 4 5 2 2 4 3 3 7 5 5 6 4 7 4 9 4 3 5 7 7 8
15 16 16 14 12 12 11 9 8 8 7 6 6 6 7 8 7 4 5 3 2 4 3 6 5 7 6 5 6 5 3 0 2 3 1 2 2 5 4 4 5 6 5 1 3 0 2 4 3 2 5 6 5 7
15 16 14 12 11 10 8 6 6 6 5 5 4 6 6 8 4 3 5 5 4 4 4 4 6 6 4 2 2 2 2 1 4 1 3 2 4 5 4 7 2 7 5 5 3 5 5 3 3 3 3 5 5 6
14 14 12 10 10 9 4 3 3 5 5 3 4 5 6 7 4 3 3 1 5 2 4 3 4 6 7 4 4 1 1 2 1 1 3 4 3 3 5 8 3 6 6 7 7 4 2 7 5 3 3 2 3 5
11 10 10 9 9 8 6 2 1 2 2 2 4 6 5 4 4 4 3 4 1 4 3 4 5 4 6 3 1 4 2 3 2 3 2 3 3 6 7 6 6 8 9 8 9 7 6 5 3 2 2 2 2 3
9 8 9 9 9 8 7 5 3 2 2 2 4 5 4 3 4 4 4 5 5 4 3 4 2 5 6 4 4 2 2 0 3 3 2 5 6 12 8 6 5 8 9 7 9 8 6 6 5 3 2 0 2 0
9 8 8 9 9 9 8 7 5 4 3 4 4 1 5 2 5 3 4 6 5 4 5 6 8 7 3 5 3 1 1 1 3 5 3 3 4 2 3 10 8 9 10 9 5 4 3 2 5 5 4 2 2 1
8 7 7 9 9 9 8 8 7 4 1 3 2 1 4 4 4 5 6 4 6 5 5 7 7 3 5 1 3 4 2 2 3 3 4 3 1 4 5 9 10 9 12 10 9 8 7 7 6 6 5 4 3 3
8 7 8 7 9 11 9 6 6 1 3 3 4 5 3 4 2 7 8 5 5 6 6 7 8 5 4 4 2 4 5 3 1 3 3 6 6 4 5 6 10 10 12 12 11 8 7 7 6 4 5 3 2 2
8 7 8 7 7 10 11 7 5 2 3 3 4 2 6 6 6 4 5 3 4 4 9 9 7 4 3 6 2 4 3 3 4 3 4 4 4 3 5 6 8 11 12 13 11 11 10 8 7 5 3 2 4 4
7 8 10 4 3 8 10 8 5 2 3 3 4 5 7 4 2 2 2 3 4 6 8 6 5 4 5 4 4 2 5 5 5 4 2 5 6 6 8 6 3 7 12 13 13 11 10 9 7 6 4 4 3 2
8 11 2 1 2 5 9 7 3 2 3 3 5 5 3 5 6 6 5 5 5 7 5 4 4 4 5 3 5 6 4 5 2 2 2 9 9 6 4 2 6 6 7 10 13 9 8 9 8 6 5 2 2 3
7 2 2 1 1 1 4 4 2 4 4 4 5 4 5 4 4 1 6 5 6 8 7 4 6 6 4 5 4 4 5 2 1 3 4 9 12 6 4 1 5 7 6 10 11 11 10 8 4 3 3 1 2 1
3 3 1 3 2 0 1 3 1 4 5 5 6 3 4 5 4 3 4 5 6 7 4 4 3 7 5 5 5 5 5 4 4 4 4 5 7 4 3 3 6 10 13 14 12 10 7 4 7 3 4 3 3 3
1 1 4 5 4 2 3 6 5 6 8 6 5 5 4 5 5 5 3 5 5 2 2 4 5 6 8 5 6 6 4 4 6 3 2 6 6 6 8 6 12 14 13 9 7 9 8 4 5 4 4 2 4 4
7 8 8 7 6 3 5 4 3 5 4 2 5 8 8 7 4 5 7 7 7 5 6 6 8 7 4 5 4 6 6 3 4 4 4 3 6 10 11 10 8 8 8 11 9 6 7 6 5 4 3 4 2 5
2 2 2 5 2 2 4 3 5 3 4 4 2 4 5 6 7 8 8 7 7 6 7 7 7 6 2 3 2 2 3 3 4 0 1 5 7 8 10 9 7 10 9 9 8 7 4 5 5 5 6 4 3 4
1 3 2 2 3 5 4 3 5 4 4 4 4 5 5 6 6 6 4 7 6 9 8 9 6 6 5 6 4 4 1 4 3 4 6 9 8 11 10 8 10 9 9 8 7 8 6 5 6 5 5 5 3 5
3 3 3 3 3 4 5 3 5 5 5 3 3 4 4 4 2 5 5 5 4 0 2 4 4 2 2 4 4 5 5 6 5 5 6 6 8 9 8 11 8 9 8 8 7 6 6 6 6 5 5 4 5 5
0 3 4 4 5 4 3 5 5 4 4 6 4 4 3 3 5 5 4 3 3 3 4 5 5 5 4 4 4 5 6 5 5 5 6 7 9 11 11 9 8 8 8 8 7 6 7 8 8 8 6 7 7 7
1 3 3 4 4 5 6 5 5 5 5 6 4 5 3 4 4 3 2 3 4 3 4 5 4 3 2 3 5 5 5 5 5 6 7 8 8 9 7 7 7 7 7 6 8 8 8 8 9 9 8 7 8 7
3 5 4 4 3 5 3 3 2 3 3 4 4 1 2 2 2 4 2 3 4 4 4 4 5 5 5 6 6 7 7 5 6 8 7 6 6 8 9 9 8 8 7 8 8 9 9 9 10 11 9 8 3 7
3 5 4 3 2 5 5 4 4 5 4 2 2 2 2 1 3 3 3 1 2 3 3 1 2 4 4 6 7 6 7 6 2 4 4 5 5 5 6 7 9 7 11 11 9 9 10 10 11 11 9 8 8 8
4 3 5 3 6 5 5 4 3 3 3 3 4 5 4 4 3 2 3 3 4 3 3 1 1 3 5 8 7 6 6 5 6 5 4 4 3 4 4 2 6 5 4 8 8 8 9 9 9 10 9 8 7 7
5 3 4 7 6 4 5 3 2 3 3 3 4 0 1 2 1 4 4 5 3 2 3 5 5 6 7 6 6 4 4 5 7 9 10 6 6 5 4 4 6 6 5 8 3 4 10 8 8 8 8 7 6 6
6 5 4 4 5 4 3 3 3 3 2 1 0 2 1 2 2 2 5 5 4 4 5 5 6 7 8 7 7 6 5 3 1 3 5 4 6 7 5 4 4 5 6 9 11 10 9 9 7 6 6 6 5 6
1 5 5 6 5 4 5 2 1 2 2 1 2 1 3 3 5 4 4 4 3 5 5 5 5 5 5 6 6 7 6 5 5 1 2 3 2 4 4 3 2 4 5 9 11 12 12 10 10 9 10 10 8 7
6 8 5 6 5 3 3 4 4 3 2 2 3 2 3 3 3 4 5 5 4 4 2 3 5 6 4 3 3 2 2 6 7 5 5 4 2 4 5 4 4 5 6 7 9 10 12 11 8 8 7 7 7 6
7 6 7 6 4 5 4 4 5 4 4 3 2 1 2 2 4 3 3 4 4 2 4 4 4 3 4 4 5 3 3 3 6 5 5 6 4 4 5 4 4 5 7 6 7 7 9 10 8 7 7 6 6 6
Wind_Direction
292 296 297 299 302 304 303 302 301 304 305 306 311 315 322 331 338 314 48 35 294 89 77 52 64 90 139 294 309 83 227 189 232 258 277 157 254 140 269 271 269 248 230 222 258 273 256 39 216 288 6 310 345 321
293 296 300 301 300 300 299 297 291 289 295 297 304 309 317 322 333 325 207 124 286 31 87 81 67 55 40 10 319 166 356 350 16 275 213 86 208 202 284 248 172 244 306 315 292 52 88 65 42 5 342 316 314 314
296 299 299 299 298 296 293 292 286 279 282 287 296 301 316 319 332 332 348 359 166 128 132 168 83 59 39 17 344 291 149 35 177 346 326 349 257 260 239 242 284 187 220 253 254 138 136 86 93 30 11 8 15 141
300 302 301 301 299 295 291 291 281 271 268 270 280 292 313 315 331 321 288 20 280 113 188 120 167 72 1 37 16 344 43 118 111 242 254 263 268 220 255 356 259 5 183 203 224 161 170 156 81 34 52 56 82 105
301 304 303 304 301 297 293 286 274 264 259 259 268 282 308 311 331 279 78 33 340 303 92 124 134 95 73 58 61 62 136 218 210 207 227 223 26 255 193 273 235 193 236 229 288 101 261 112 117 97 73 79 89 118
309 310 308 306 305 298 294 283 263 250 241 249 260 286 309 304 332 240 175 125 350 301 188 182 90 156 118 86 73 62 40 6 274 287 14 104 54 268 278 275 241 202 209 286 22 28 41 97 106 116 103 106 93 103
313 314 314 314 311 303 301 287 245 230 226 240 251 283 300 297 269 289 5 41 337 272 224 160 170 158 170 195 135 104 77 67 299 183 233 260 178 252 270 250 192 196 181 164 167 162 170 188 109 70 83 104 134 101
322 328 328 331 333 321 296 271 232 215 215 201 267 280 280 279 269 203 110 190 282 223 248 214 122 176 185 191 170 194 196 203 141 27 194 237 146 248 250 241 227 185 178 174 175 199 58 138 155 111 73 90 189 171
324 334 345 1 349 6 8 27 178 180 202 243 260 276 235 226 205 93 123 243 250 297 227 204 191 141 171 143 132 166 255 220 96 239 201 244 188 229 235 240 195 189 194 186 176 175 169 180 156 157 155 146 163 98
324 330 341 353 353 2 357 349 313 247 216 231 234 215 174 111 112 154 174 192 188 188 230 242 163 141 212 166 143 213 206 349 244 100 148 232 248 245 237 210 219 188 199 184 184 191 193 202 208 198 212 102 310 264
324 323 326 334 354 355 360 349 341 197 181 214 206 108 65 133 202 213 183 205 168 208 203 220 206 146 182 203 143 300 198 190 259 111 262 246 255 166 202 194 189 188 184 187 193 146 165 179 170 170 160 143 178 247
314 324 321 319 341 343 342 0 5 216 325 345 13 130 171 203 203 216 191 170 216 206 164 189 177 167 126 188 198 169 233 193 252 112 245 264 151 135 161 177 177 187 185 179 164 148 142 138 136 127 127 132 111 90
298 319 319 319 340 334 324 342 1 321 226 209 215 179 201 148 183 215 188 192 197 167 159 162 154 150 150 212 138 192 208 215 109 226 238 232 102 134 162 173 172 180 187 188 184 183 170 160 161 178 158 161 163 163
298 307 307 323 337 332 347 325 336 290 254 228 174 236 221 187 232 205 221 176 102 146 156 172 146 168 124 180 152 213 98 216 237 218 240 118 103 123 159 178 183 189 194 198 201 200 198 189 191 194 213 215 236 243
301 300 288 301 312 312 324 316 311 255 274 237 223 229 214 246 266 218 197 180 136 150 153 151 143 200 152 154 202 154 190 231 225 221 102 125 139 119 96 73 291 223 206 209 214 207 201 191 175 163 158 168 166 209
318 288 213 53 292 317 325 306 232 232 239 246 238 245 201 242 223 196 194 190 141 165 164 188 157 193 188 194 185 200 216 221 185 170 119 144 157 167 217 177 222 223 238 218 218 197 166 155 147 142 159 196 235 277
305 272 43 183 169 239 318 279 275 233 249 229 226 235 255 302 305 217 190 180 155 180 190 181 196 175 126 206 205 193 217 293 71 176 175 190 191 202 289 286 201 203 193 173 139 130 109 99 119 183 239 63 323 299
247 126 72 32 352 16 126 243 269 277 257 239 242 227 207 269 272 222 196 159 184 203 221 226 48 204 203 199 211 209 232 268 228 220 225 176 180 178 139 149 136 142 129 123 121 106 105 156 213 138 108 89 170 154
42 249 303 330 331 279 210 173 215 241 226 235 226 248 258 264 245 262 234 168 226 269 231 201 229 229 236 239 272 288 299 262 235 206 157 146 170 144 135 133 135 134 130 124 125 174 167 153 110 116 114 134 65 58
256 263 271 251 229 236 228 198 215 259 262 209 224 237 222 249 258 230 214 201 198 212 218 214 236 257 251 285 323 297 317 273 199 209 144 157 156 152 150 140 139 140 148 173 162 130 137 144 142 141 96 76 99 122
265 160 138 182 156 255 286 262 230 251 297 257 252 217 213 210 227 219 215 178 198 213 224 234 256 278 0 286 261 206 164 230 258 290 270 154 167 164 148 151 156 189 167 171 161 142 208 148 136 156 156 152 119 127
103 191 212 135 223 199 268 237 282 324 257 268 264 226 233 221 218 200 164 199 233 229 221 241 221 234 200 198 190 222 145 187 188 118 91 126 161 164 156 167 191 181 180 175 175 166 189 153 151 166 186 145 211 169
274 218 224 202 227 204 256 216 240 223 241 228 198 227 212 214 161 145 214 216 227 167 220 212 174 156 165 132 179 183 180 184 169 167 160 166 160 154 167 190 189 184 179 177 185 180 180 136 155 206 179 192 212 202
300 260 225 196 205 259 213 225 216 236 225 225 227 247 214 154 160 217 222 167 114 133 172 165 182 160 150 172 182 162 166 183 160 154 156 151 157 169 188 171 188 185 186 172 185 189 184 183 163 198 209 210 212 230
157 252 191 249 204 235 243 231 212 220 240 213 237 231 176 181 217 224 152 114 128 136 137 157 182 185 195 121 141 128 161 176 164 144 157 176 153 159 183 189 182 200 189 184 182 195 193 189 190 199 205 211 218 226
228 222 210 226 201 237 256 258 269 272 264 241 234 106 231 221 170 80 36 125 123 132 158 175 172 179 188 189 172 156 160 177 151 149 161 177 172 178 180 185 192 198 196 205 202 194 194 192 194 195 204 188 96 278
243 230 214 232 272 288 263 257 277 268 255 277 349 245 240 167 93 102 118 121 98 84 62 1 252 222 194 167 170 142 148 152 139 72 120 194 210 222 229 198 204 189 171 198 209 200 194 189 192 194 207 206 196 206
270 249 236 213 225 233 266 284 269 355 12 5 307 30 12 12 87 90 91 104 95 82 54 66 175 202 182 154 133 140 153 153 144 166 156 164 189 174 202 222 79 54 185 192 194 191 186 184 189 193 202 203 198 200
238 241 258 254 233 230 225 258 44 37 13 356 329 109 262 37 81 132 125 118 129 162 111 117 128 124 109 126 139 144 152 176 176 174 196 164 156 138 173 195 163 189 190 170 178 169 172 176 185 189 191 201 202 191
235 206 244 251 226 221 190 170 150 184 211 215 88 116 79 307 100 119 140 158 184 101 96 112 133 148 148 152 145 143 155 138 258 176 163 144 120 129 143 153 161 175 176 165 168 136 110 143 138 176 200 201 202 210
222 200 236 256 258 246 242 207 219 243 226 188 132 144 132 146 138 175 182 165 139 134 137 138 140 146 165 163 157 167 163 170 166 159 41 84 111 155 165 135 142 160 179 176 170 171 174 186 191 198 199 220 228 239
209 220 225 236 247 232 242 235 224 219 167 195 189 184 135 150 141 153 166 190 180 197 136 174 182 166 181 160 167 130 12 150 165 182 184 195 191 172 163 153 150 155 167 175 182 186 187 205 214 216 218 226 238 232
204 206 218 255 238 211 174 215 199 203 190 204 161 139 106 92 88 103 154 221 246 271 159 157 141 125 131 234 257 230 189 182 79 72 63 47 46 151 165 157 143 157 166 173 182 182 195 211 217 205 210 221 227 234